Terminal Aerodrome Forecast
Issued by NWS

Home | Current Version | Previous Version | Text Only | Print | Product List | Glossary On
Versions: 1 2 3 4 5 6 7 8 9 10 11 12 13 14
000
FTUS42 TJSJ 211147
TAFKPK
TAF
TKPK 211147Z 2112/2212 05012KT P6SM FEW018
     FM211300 10012KT P6SM SCT025 SCT070
     FM212300 07007KT P6SM FEW025=

USA.gov is the U.S. government's official web portal to all federal, state and local government web resources and services.